Find Starlink 6316

NORAD ID: 57335 Int'l Des: 2023-099 Owner: SPXS Country: US Constellation: starlink operational
LEOCIRCULAR

リアルタイム位置

3D地球を読み込み中...

Starlink 6316について

説明を読み込み中...

次回通過

Passes for default location (London). Set your location on the main map for personalized predictions.

高度履歴

Loading altitude history...

軌道要素

1 57335U 23099H 26124.00002315 .00044636 00000-0 16225-2 0 9993
2 57335 43.0021 296.9529 0001951 276.1376 16.6702 15.27563640 5810
Epoch: May 4, 2026 • Age: 10 hours

現在のステータス

高度 485.2 km
速度 7.63 km/s
衛星直下点 32.63°N, 55.15°E
打ち上げ日 Jul 16, 2023
運用期間 2.8 years
タイプ internet

技術仕様

分類 Payload
質量 305.00 kg
乾燥質量 290.00 kg
総質量 305.00 kg
長さ 0.20 m
直径 2.80 m
スパン 9.00 m
形状 Box + pan
製造者 SPXS
バスタイプ Starlink
フェーズステータス In Orbit
所有者/国 SPXS/US

Most Searched